{"data":{"norad_id":67700,"intl_designator":"2026-025H","name":"STARLINK-36712","alt_names":[],"object_type":"PAYLOAD","status":"ACTIVE","operator":null,"country":"US","launch_date":"2026-02-07","launch_site_code":"AFWTR","launch_vehicle":null,"mission":null,"orbit_class":"UNKNOWN","rcs_meters":null,"size_class":null,"mass_kg":null,"dimensions":null,"purposes":["comms"],"wikipedia_slug":null,"has_3d_model":false,"image_url":null,"decayed_at":null,"tle_current":{"epoch":"2026-09-19T05:57:59.103072Z","epoch_age_seconds":177276,"freshness":"STALE","line1":"1 67700U 26025H   26262.24860073  .00016737  00000+0  51944-3 0  9992","line2":"2 67700  97.2845  12.1598 0000913  95.9347 264.2000 15.33454603 35672","mean_motion":15.33454603,"eccentricity":9.13e-5,"inclination_deg":97.2845,"raan_deg":12.1598,"arg_perigee_deg":95.9347,"mean_anomaly_deg":264.2,"bstar":0.00051944,"rev_number":3567,"period_min":93.905616585116,"perigee_km":464.88977746418,"apogee_km":466.13942824686,"semimajor_km":6843.6516028555,"source":"CELESTRAK","updated_at":"2026-09-20T09:00:43.628598Z"}}}